Flag for Germany Weather past 2 weeks in Siegburg, North Rhine-Westphalia, Germany

Now
40 °F

Fog.


Feels Like: 40 °F
Forecast: 48 / 70 °F
Wind: 2 mph from Northeast

Location: Bonn-Hangelar


UV Index: 3 (Moderate)

Visibility: 2 mi


Pressure: 30.03 "Hg

Humidity: 95%

Dew point: 38 °F

Location of SiegburgLocation

Historic Weather in Siegburg

°F

Siegburg temperature yesterday

Maximum temperature yesterday: 51 °F (at 2:00 PM)
Minimum temperature yesterday: 39 °F (at 7:00 AM)
Average temperature yesterday: 46 °F

Past Weeks' High & Low Weather Summary

 TemperatureHumidityPressure
High67 °F (Apr 7, 5:00 PM)99% (Apr 12, 9:00 AM)30.44 "Hg (Apr 12, 9:00 AM)
Low32 °F (Apr 16, 6:00 AM)29% (Apr 17, 4:00 PM)29.72 "Hg (Apr 4, 6:00 AM)
Average50 °F74%30.10 "Hg
* Reported Apr 4 6:00 AM — Apr 19 6:00 AM, Siegburg, Weather by CustomWeather, © 2014

Note: Actual official high and low records may vary slightly from our data, if they occured in-between our weather recording intervals... More about our weather records

Advertising

Historic Weather Conditions — Data for Previous 24 hours

 ConditionsComfort  
Time TempWeatherWind HumidityBarometerVisibility
6:00 AM
Apr 19
40 °FPassing clouds.7 mph94%30.02 "Hg2 mi
5:00 AM40 °FLow clouds.1 mph93%30.01 "Hg9 mi
4:00 AM40 °FLow clouds.3 mph91%30.01 "Hg16 mi
3:00 AM41 °FOvercast.2 mph88%30.02 "Hg25 mi
2:00 AM41 °FOvercast.2 mph85%30.02 "Hg31 mi
1:00 AM41 °FOvercast.2 mph84%30.03 "Hg31 mi
12:00 AM42 °FPassing clouds.2 mph80%30.03 "Hg31 mi
11:00 PM
Apr 18
42 °FPassing clouds.3 mph78%30.03 "Hg31 mi
10:00 PM45 °FPassing clouds.7 mph72%30.01 "Hg31 mi
9:00 PM47 °FOvercast.3 mph69%29.99 "Hg37 mi
8:00 PM49 °FPartly sunny.6 mph60%29.98 "Hg37 mi
7:00 PM50 °FPartly sunny.6 mph57%29.98 "Hg37 mi
6:00 PM49 °FPartly sunny.6 mph53%29.98 "Hg37 mi
5:00 PM51 °FPartly sunny.7 mph45%29.98 "Hg37 mi
4:00 PM50 °FPartly sunny.6 mph55%29.99 "Hg37 mi
3:00 PM50 °FScattered clouds.6 mph57%29.99 "Hg37 mi
2:00 PM51 °FScattered clouds.7 mph54%29.99 "Hg31 mi
1:00 PM50 °FPartly sunny.8 mph61%29.99 "Hg22 mi
12:00 PM46 °FPartly sunny.6 mph66%30.00 "Hg22 mi
11:00 AM46 °FOvercast.7 mph72%29.99 "Hg19 mi
10:00 AM44 °FPartly sunny.7 mph80%29.99 "Hg16 mi
9:00 AM44 °FScattered clouds.6 mph80%29.98 "Hg11 mi
8:00 AM41 °FPassing clouds.3 mph94%29.98 "Hg7 mi
7:00 AM39 °FFog.2 mph96%29.96 "Hg4 mi
Weather by CustomWeather, © 2014

See weather overview